RH
31 30 28 26 24 23 22 22 21 20 19 17 15 15 15 14 13 12 13 13 13 14 14 12 11 11 10 11 11 13 14 16 18 19 21 22 23 24 26 28 29 30 31 31 31 31 31 31 32 33 35 35
32 31 29 26 25 24 23 22 22 20 19 18 16 16 15 15 14 13 13 14 14 15 16 14 12 12 12 11 12 13 15 17 18 20 21 22 23 25 27 29 31 32 33 33 33 33 33 32 32 33 35 36
32 31 29 27 26 25 24 24 22 21 20 19 18 17 16 16 15 14 14 15 15 16 17 16 13 13 13 12 12 13 15 17 18 20 21 22 23 25 28 30 32 34 35 35 35 35 34 33 32 33 34 36
34 33 31 29 28 27 26 25 24 23 22 21 19 18 18 17 16 15 14 16 17 17 19 18 15 14 14 14 13 13 15 17 19 20 22 23 25 26 29 32 34 36 36 37 37 36 35 34 33 32 33 34
35 35 34 32 29 29 28 26 26 24 23 23 21 19 19 19 18 16 15 17 19 19 20 21 18 15 14 15 14 14 15 17 19 21 22 24 26 28 30 33 35 37 39 39 39 39 38 36 35 34 33 32
35 36 36 33 31 30 29 28 27 27 26 24 23 21 21 20 19 18 17 17 20 22 22 22 21 17 15 15 15 15 15 17 19 20 22 25 27 29 32 34 37 39 41 42 42 41 40 39 37 35 34 33
35 35 36 34 33 32 31 30 30 29 28 26 25 23 22 22 21 19 18 19 22 24 25 24 23 20 17 16 16 16 17 18 20 22 24 27 29 33 35 38 40 42 44 45 45 44 43 42 40 38 36 35
36 35 37 36 35 34 33 33 32 31 31 29 27 25 24 23 23 22 20 21 23 27 28 26 26 24 20 17 18 17 18 19 21 24 27 29 32 36 39 42 44 46 47 48 48 47 47 45 43 42 40 38
38 36 37 39 38 38 36 36 35 35 34 33 30 28 26 25 24 24 23 23 25 29 31 30 28 27 24 20 19 19 19 20 22 26 30 33 36 40 43 46 47 49 50 50 49 49 48 48 46 45 43 43
41 39 40 42 44 43 41 40 39 39 38 36 34 31 28 27 27 27 27 26 28 31 34 33 31 30 29 24 21 20 20 21 23 26 31 35 39 44 47 50 51 53 53 52 51 50 49 49 47 46 46 45
44 42 44 46 48 48 46 45 44 44 43 41 38 34 31 30 29 29 29 30 31 33 36 37 35 33 32 30 25 23 22 23 24 27 31 36 41 45 49 52 54 55 56 56 54 52 51 50 49 48 47 47
50 48 49 49 51 53 52 51 50 49 48 45 42 37 34 33 32 31 32 33 34 35 38 40 40 38 36 35 31 27 25 24 26 28 31 35 40 45 49 52 55 57 58 58 57 55 54 54 53 52 51 51
58 57 57 53 52 55 58 57 56 55 53 50 45 40 37 35 35 34 35 37 38 38 40 43 45 44 42 40 38 32 29 28 28 30 32 35 39 43 48 52 55 58 59 60 60 60 59 58 57 57 56 55
68 67 63 58 55 58 63 64 62 61 59 55 50 44 40 38 38 38 38 40 41 42 44 47 50 50 48 46 45 40 35 32 31 32 34 37 41 44 49 54 57 60 62 63 63 63 62 62 61 60 59 58
77 75 71 67 63 63 67 70 70 68 65 60 54 48 43 41 41 42 43 44 45 47 49 51 53 56 55 53 52 49 43 39 36 36 37 39 43 48 52 55 60 63 66 66 66 66 65 65 65 64 63 62
85 83 79 76 74 71 72 75 77 75 71 66 59 53 48 45 45 47 48 49 51 53 55 57 59 61 62 61 60 59 55 48 43 40 40 43 45 50 54 57 60 64 69 70 70 70 70 70 69 69 69 68
94 92 89 89 87 83 79 80 83 83 78 71 63 58 53 50 50 52 53 56 58 60 62 64 67 67 69 71 70 69 67 60 53 47 45 46 47 49 53 58 61 63 68 72 74 75 75 76 77 77 77 76
103 102 102 104 103 98 91 88 87 88 85 77 69 63 60 57 55 57 59 62 65 67 69 71 74 76 77 81 81 80 78 72 64 57 52 50 51 52 51 55 61 64 67 71 74 77 79 81 83 85 86 85
107 105 106 109 111 108 104 99 93 91 90 84 75 68 65 63 62 64 66 68 71 75 77 76 78 83 86 88 90 90 89 85 76 68 62 56 54 56 54 53 56 62 67 70 72 74 77 80 83 87 90 90
104 105 104 104 106 107 106 105 98 93 91 87 80 73 70 69 70 72 73 74 77 80 81 80 82 88 93 95 96 96 97 96 90 81 74 67 60 58 58 57 56 58 62 66 69 71 73 76 79 82 85 87
102 103 102 102 103 103 103 102 98 92 88 86 83 79 78 78 79 79 79 80 82 83 83 84 86 89 94 99 100 99 99 99 98 93 86 80 73 66 62 61 61 59 58 59 61 64 68 70 74 76 79 81
101 101 100 101 101 102 101 99 96 90 83 82 86 89 89 88 85 81 82 85 87 86 84 84 89 93 97 98 98 100 100 98 98 96 93 90 87 82 76 70 65 62 59 57 56 56 58 60 63 66 69 71
102 101 101 101 100 101 100 96 93 89 85 84 89 96 97 93 89 86 86 88 90 90 88 86 90 96 100 99 98 100 103 102 100 99 97 95 95 94 91 85 77 68 62 59 56 54 53 53 53 54 56 57
103 102 101 101 101 100 97 94 93 92 91 91 94 99 101 98 95 92 89 89 93 95 93 89 90 94 101 105 106 106 106 105 104 102 100 100 100 99 98 96 90 81 71 65 59 56 55 53 51 50 50 49
102 101 101 101 100 99 97 96 97 98 99 99 101 103 102 98 94 92 91 93 97 101 100 95 90 92 100 107 111 111 110 109 107 105 103 102 101 100 99 98 97 92 84 76 67 62 60 58 55 53 51 48
101 101 100 99 100 100 100 101 102 105 106 105 104 103 99 94 91 90 93 97 102 107 108 100 90 91 99 105 109 109 109 111 110 106 103 101 100 100 100 100 101 99 94 88 80 73 68 66 63 61 61 63
101 101 99 100 101 101 102 104 104 105 106 105 102 99 95 92 92 94 98 103 108 108 104 95 91 96 102 105 106 105 105 107 108 107 103 99 98 98 99 99 100 101 100 98 93 87 81 77 77 78 80 84
100 101 101 101 101 101 101 103 103 103 105 105 102 100 99 99 100 102 103 105 107 104 97 94 98 104 107 107 104 104 106 102 102 105 103 99 97 96 97 98 99 101 102 102 100 98 94 92 91 90 89 89
101 101 102 101 101 101 101 103 105 104 105 105 104 103 104 105 105 105 104 103 103 102 99 100 104 106 108 108 104 106 108 102 100 103 101 99 98 96 96 96 97 99 100 101 100 99 98 97 94 90 88 89
101 101 102 101 101 101 101 102 103 104 104 102 102 102 101 102 104 105 106 104 102 101 101 103 106 108 108 107 104 105 106 103 101 102 100 99 98 98 97 95 95 97 99 99 98 97 95 93 91 90 90 91
101 101 101 101 101 101 101 101 102 102 102 100 101 101 100 101 102 105 109 108 104 103 103 105 108 108 106 105 104 102 103 104 102 100 101 100 100 102 99 97 99 100 100 99 97 96 95 93 93 92 92 89
Wind_Speed
52 52 51 50 49 49 48 47 46 45 44 44 44 43 43 43 42 42 42 41 40 40 40 40 40 39 39 38 37 36 35 35 35 35 35 35 35 35 34 33 32 31 30 30 29 29 29 29 30 30 30 30
53 52 52 51 50 49 49 48 47 46 45 45 44 44 43 43 43 42 42 41 40 40 40 40 40 39 39 38 38 37 36 36 36 35 35 35 35 35 34 34 33 32 32 31 31 31 31 31 32 32 32 32
54 53 53 52 51 50 49 49 47 46 46 45 45 44 44 43 43 42 42 42 41 40 40 40 40 40 39 39 39 38 37 37 37 36 36 36 36 35 35 34 34 33 33 33 33 32 33 33 34 34 34 34
54 53 53 53 52 51 50 49 48 47 46 46 45 45 44 44 43 43 42 42 42 41 40 40 40 40 40 40 39 39 38 38 38 37 37 37 36 36 36 35 35 35 35 34 34 34 34 35 35 36 36 36
55 54 54 53 52 51 50 49 48 48 47 46 46 45 44 44 44 43 43 42 42 41 41 41 41 41 41 40 40 40 40 39 39 38 38 38 37 37 37 37 36 36 36 36 37 37 37 37 37 37 37 37
56 55 54 54 53 52 51 50 49 48 47 47 46 46 45 44 44 44 43 43 42 42 42 41 41 41 41 41 41 41 41 41 40 40 39 39 39 38 38 38 38 38 38 38 39 39 39 39 39 39 39 39
57 56 55 54 53 53 52 51 50 49 48 47 47 46 45 45 44 44 44 43 43 43 43 42 42 42 42 42 42 42 42 42 42 41 41 41 40 40 40 40 40 40 40 40 41 41 41 41 41 41 41 41
59 57 56 55 54 54 53 52 51 49 49 48 47 47 46 45 45 44 44 44 43 43 43 43 43 43 43 42 42 42 42 43 43 42 42 42 42 42 42 41 42 42 42 42 43 43 43 44 44 44 43 43
60 59 57 56 55 54 53 52 51 50 49 49 48 47 47 46 45 45 45 45 44 44 44 44 44 44 43 43 43 43 43 43 43 43 43 43 43 43 43 44 44 44 44 44 44 45 45 45 46 46 46 46
61 60 58 56 55 55 54 53 52 51 50 49 48 48 47 46 46 45 45 45 45 45 45 45 45 45 44 44 44 44 44 44 44 44 44 44 44 44 45 45 46 46 46 46 46 47 47 47 48 48 48 48
62 61 59 58 56 55 54 53 52 51 50 50 49 48 48 47 46 46 46 46 46 46 46 46 46 46 46 45 45 45 45 45 45 45 46 46 46 46 46 47 47 48 48 48 48 49 49 49 50 50 50 50
63 62 61 59 57 56 55 54 53 52 51 50 50 49 48 47 47 47 47 47 47 47 47 47 47 47 47 46 46 46 47 47 47 47 47 47 47 48 48 48 49 49 49 50 50 50 51 51 52 52 52 52
64 63 62 61 59 57 56 55 54 52 52 51 51 50 49 48 48 48 48 48 48 48 48 48 48 48 48 48 48 47 48 48 48 48 48 49 49 49 50 50 50 50 51 51 52 52 53 53 53 54 54 55
65 64 63 62 61 58 57 56 54 53 52 52 51 51 50 49 49 49 49 49 49 49 49 49 49 49 49 49 49 49 49 49 49 49 50 50 50 51 51 51 51 52 52 52 53 54 54 55 55 56 56 57
65 65 64 63 62 60 58 56 55 54 53 53 52 51 51 50 50 50 50 50 50 50 50 50 50 50 50 49 50 50 50 50 50 50 50 51 52 52 52 53 53 53 54 54 54 55 56 57 57 58 59 59
66 65 65 64 63 62 60 58 56 55 54 53 53 52 52 51 51 50 50 51 51 51 51 51 51 51 51 51 50 50 51 51 51 51 52 52 53 53 54 54 55 55 55 56 56 57 58 58 59 60 61 61
67 66 65 65 64 63 62 60 58 57 55 54 53 53 53 52 51 51 51 51 52 52 52 52 52 52 52 52 51 51 51 52 52 52 53 53 54 54 55 55 56 57 57 58 58 58 59 60 60 61 62 63
67 67 66 65 65 64 63 62 60 58 56 55 55 54 53 53 52 52 52 52 52 53 53 53 53 53 53 52 52 52 52 52 53 54 54 55 55 56 56 57 57 58 58 59 59 60 60 61 62 63 64 64
67 67 66 66 66 65 65 64 63 60 58 57 56 55 54 54 53 53 53 53 53 53 53 54 54 54 54 53 53 53 53 53 54 55 55 56 56 57 57 58 59 59 60 60 61 61 62 63 64 64 65 66
68 68 68 67 67 66 66 65 65 63 61 58 57 56 55 55 55 54 54 54 54 54 54 55 55 55 55 54 54 54 54 55 55 56 57 57 57 58 59 59 60 60 61 61 62 63 63 64 65 66 67 68
70 69 69 68 67 67 66 66 66 65 63 61 58 57 57 57 56 55 55 55 55 55 55 56 56 56 56 55 55 55 56 56 56 57 58 58 59 59 60 61 61 62 62 62 63 64 65 66 67 68 69 70
71 71 70 69 69 68 68 68 67 67 66 63 60 59 58 58 58 57 56 56 56 56 56 56 57 57 57 57 56 56 57 57 58 58 59 59 60 60 61 62 62 63 63 64 64 65 66 67 68 69 70 71
73 72 71 71 70 69 69 69 69 68 67 65 62 61 60 60 60 59 58 57 57 57 57 57 58 58 58 58 58 58 58 58 59 59 60 61 61 61 62 62 63 63 64 65 65 66 67 67 68 69 70 71
75 74 73 72 72 71 71 70 70 69 68 67 65 64 63 62 61 60 60 59 58 58 58 59 59 59 59 60 60 59 59 59 60 60 61 62 62 62 63 63 64 64 65 65 66 66 67 67 68 69 70 70
77 75 74 74 73 73 72 71 71 70 69 68 67 66 65 64 63 62 62 60 59 59 60 60 60 60 60 61 61 61 61 61 61 61 62 62 63 63 63 64 64 65 65 66 66 67 66 67 67 67 68 69
78 77 76 75 74 74 73 72 72 71 71 70 69 69 68 67 65 64 62 61 60 60 61 62 62 61 62 62 63 63 63 62 62 62 62 63 64 64 64 64 65 65 66 66 67 67 66 66 66 66 67 67
79 78 77 76 75 74 74 73 73 72 72 72 71 71 70 69 67 65 63 61 62 62 63 64 63 63 63 64 64 65 64 64 63 63 63 64 64 65 65 65 65 66 66 66 67 67 66 66 66 66 67 68
80 79 78 77 76 75 75 75 75 74 74 74 73 72 71 70 68 66 65 64 65 65 65 65 64 64 65 65 66 66 66 66 65 65 64 65 65 65 65 66 66 66 67 67 68 68 68 67 68 68 69 70
82 81 80 79 78 77 77 77 77 76 76 75 74 73 72 71 70 69 68 68 67 67 66 65 65 66 67 67 67 68 68 68 67 66 66 65 65 66 66 66 67 67 68 68 69 69 69 69 70 70 71 71
83 83 82 81 80 79 78 78 78 78 77 76 75 74 74 73 72 72 71 70 69 68 66 65 66 67 68 69 69 69 69 69 69 68 67 66 66 67 67 67 68 68 69 69 69 70 71 71 71 72 72 72
85 84 83 82 81 80 79 79 79 79 79 77 77 76 76 75 74 74 73 73 71 69 66 66 67 69 70 70 70 70 70 70 70 70 69 68 68 68 68 68 69 69 69 69 70 71 71 72 73 73 73 73
Wind_Direction
259 260 261 262 264 266 268 270 272 274 277 279 281 283 286 287 289 291 293 295 296 297 298 297 297 297 296 295 295 295 295 295 295 295 295 295 294 295 295 295 295 296 296 297 297 297 297 295 294 293 292 291
259 260 261 263 264 266 268 270 272 274 277 279 281 283 285 286 288 290 292 294 295 296 297 296 296 295 295 294 293 293 293 293 292 292 292 292 292 293 293 294 295 295 295 296 296 296 295 294 293 292 291 289
258 260 261 263 265 266 268 270 272 274 277 279 281 283 284 286 288 289 291 293 294 295 296 296 295 294 293 292 291 291 291 291 290 290 290 290 291 291 292 293 293 293 294 294 294 294 294 293 292 291 290 288
258 260 262 263 265 266 268 270 272 275 277 279 281 282 284 285 287 288 290 292 293 294 295 295 294 293 292 291 290 289 289 288 288 288 288 288 289 290 290 291 291 292 292 293 293 293 292 292 291 290 289 288
258 260 262 263 265 267 268 271 273 275 277 279 280 282 283 284 286 287 289 291 292 293 294 293 293 292 290 289 289 288 287 287 286 286 286 286 287 288 288 289 290 290 291 291 291 292 291 291 291 290 289 288
258 260 261 263 265 267 268 271 273 275 277 279 280 281 282 283 285 286 288 289 290 292 292 292 292 291 289 288 287 287 286 286 286 286 286 286 287 287 288 289 289 289 290 290 290 290 290 291 290 290 289 288
258 259 261 263 265 267 268 270 273 275 276 278 279 280 281 282 284 285 286 288 289 290 291 291 290 290 289 287 286 286 285 285 286 286 286 286 287 287 287 288 288 289 289 289 289 289 290 290 290 289 289 288
258 259 260 262 264 266 268 270 272 274 276 277 278 279 280 281 282 284 285 287 288 289 290 290 290 289 288 286 285 285 284 284 284 284 285 285 286 286 286 286 287 287 287 287 288 288 288 288 288 288 288 287
258 259 260 262 264 266 268 270 271 273 275 277 278 278 279 280 281 282 284 285 287 288 288 289 289 288 287 286 284 284 283 283 282 282 282 283 284 284 284 285 285 285 285 285 286 286 286 286 287 287 287 287
257 259 260 262 264 265 267 269 271 273 275 276 277 277 278 279 280 281 282 284 285 287 288 288 288 288 287 285 284 283 282 282 281 281 281 281 281 281 282 282 283 283 284 284 284 285 285 285 285 285 286 286
258 259 260 262 263 265 267 269 271 273 274 275 276 277 277 278 279 280 281 283 284 286 287 288 288 287 286 285 284 283 282 281 281 280 280 279 279 279 279 280 280 281 282 283 283 284 284 285 285 285 286 286
258 260 261 262 263 265 267 269 271 272 274 275 276 276 277 278 278 279 281 282 283 285 286 287 287 287 286 285 284 283 282 281 281 280 279 279 278 278 278 279 279 280 281 282 282 283 284 284 285 285 286 287
259 260 261 262 263 265 267 269 270 272 274 275 276 276 277 277 278 279 280 281 283 284 285 286 286 286 286 285 284 283 282 282 281 281 280 280 279 279 279 279 280 280 281 282 282 283 283 284 284 285 286 287
259 260 261 263 264 265 267 269 270 272 273 274 275 276 276 277 277 278 280 281 283 284 285 285 286 286 285 284 284 283 282 282 282 281 281 281 281 281 281 281 281 282 282 282 283 283 284 284 285 285 286 287
258 260 262 263 264 265 266 268 270 272 273 274 275 276 276 277 277 278 279 281 282 284 285 285 285 285 285 284 283 283 282 282 282 282 282 282 282 282 282 282 282 283 283 283 283 284 284 285 286 286 287 288
258 260 261 263 265 266 267 268 270 271 272 274 275 275 276 277 277 278 279 281 282 283 284 285 285 285 284 283 283 282 282 282 283 283 283 282 282 282 283 283 283 283 283 283 284 284 285 286 287 287 288 289
258 260 261 263 265 266 267 268 269 271 272 273 274 275 276 277 277 278 279 280 281 283 284 284 284 284 284 283 282 282 282 283 283 283 283 283 283 283 283 283 283 284 284 284 284 285 285 286 287 288 289 290
258 259 261 263 264 266 267 268 269 270 272 273 274 275 276 277 278 278 279 279 281 282 283 283 283 283 283 283 282 282 282 283 283 283 283 283 283 283 284 284 284 284 284 284 285 285 286 286 287 288 289 289
257 259 260 262 263 265 267 268 269 270 271 272 274 275 276 277 278 278 278 279 280 281 282 282 282 282 283 282 282 282 282 282 283 283 283 284 284 284 284 284 284 284 284 285 285 286 286 287 287 288 288 289
256 258 259 261 263 265 266 268 269 270 271 272 274 275 277 277 277 277 277 278 279 280 281 281 281 281 282 282 282 282 282 282 282 282 283 283 284 284 284 284 284 285 285 285 286 286 286 287 287 288 288 289
255 257 258 260 262 264 266 267 269 270 271 273 274 276 276 276 276 277 277 278 279 279 280 280 281 281 281 282 282 282 282 282 282 282 283 283 283 284 284 285 285 285 286 286 286 286 287 287 287 288 288 289
254 256 258 259 261 263 265 267 269 270 272 273 275 275 275 276 277 277 278 279 279 279 279 279 280 280 281 282 282 283 282 282 282 282 282 283 283 284 284 285 285 286 286 287 287 287 287 287 288 288 288 289
253 255 257 258 260 262 264 266 268 270 272 273 275 275 275 276 277 279 279 279 279 279 279 279 279 279 280 281 282 283 283 282 282 282 282 283 283 284 285 285 286 286 287 287 287 287 287 288 288 289 289 289
252 254 256 258 260 262 264 266 268 270 272 273 275 275 276 277 278 279 280 280 280 279 278 278 278 278 279 280 281 282 283 283 283 282 282 283 284 284 285 286 286 287 287 287 287 288 288 289 289 289 290 290
252 254 256 257 260 262 264 266 268 270 272 273 275 275 276 277 278 279 280 281 280 279 277 277 277 277 278 278 280 281 282 283 283 283 283 283 284 284 285 286 287 287 287 288 288 288 289 289 290 290 290 291
252 254 256 258 260 262 264 266 268 269 271 273 274 275 276 277 279 280 281 281 280 277 276 276 277 277 277 278 279 279 281 282 283 284 284 283 283 284 285 286 287 287 288 288 288 289 289 289 290 290 291 291
253 254 256 258 260 262 264 265 267 268 270 272 273 275 277 278 280 281 281 280 278 275 275 276 277 278 278 278 278 278 279 281 282 284 284 284 284 284 285 286 286 287 288 288 288 289 289 289 290 290 290 291
253 254 256 257 259 261 262 264 266 267 269 271 273 275 277 278 279 279 279 277 276 276 276 277 278 277 277 277 277 277 278 279 281 283 284 285 285 285 285 286 286 287 287 287 288 288 289 289 289 289 290 290
253 254 256 257 259 260 262 264 266 268 269 271 273 275 276 277 278 278 277 277 277 277 278 278 277 277 277 277 277 277 277 278 280 282 283 285 285 285 285 286 286 286 286 287 287 288 288 288 289 289 290 290
254 255 256 258 259 261 262 264 266 267 269 271 272 273 274 275 276 277 277 278 278 278 278 278 277 276 276 276 276 277 277 278 279 281 282 284 285 285 285 286 286 286 286 287 287 288 288 288 288 289 290 290
254 255 257 258 260 261 263 264 265 267 268 270 271 272 273 274 275 276 277 277 278 279 278 277 275 275 275 275 276 277 277 278 279 280 281 283 285 285 286 286 286 286 287 287 288 288 288 288 289 289 290 291